Location: Kunchanapalle
(16.4623°N, 80.6176°E)
Time: 17:18:44
(UTC+00:00)

NOSS 3-2 (A) - Pass Details

Date: 13 August 2020
Orbit: 796 x 1412 km, 63.4° (Epoch: 16 September)

Event Time Altitude Azimuth Distance (km) Brightness Sun altitude
Rises 13:57:52 0° 206° (SSW) 3,291 6.4 -13.3°
Reaches altitude 10° 14:00:15 10° 208° (SSW) 2,356 5.6 -13.8°
Maximum altitude 14:05:35 81° 294° (WNW) 824 3.2 -15.0°
Drops below altitude 10° 14:11:15 10° 22° (NNE) 2,497 5.6 -16.3°
Sets 14:13:50 0° 24° (NNE) 3,504 6.4 -16.9°
